SIA22A WSSS-KEWR

Flight info

Callsign SIA22A
Flight time N/A
Altitude 32000
Route TOMAN5B TOMAN L625 AKMON/K0946F320 L625 ALDAS/K0932F350 L625 ANOKI/N0502F350 L625 ALDIS/N0499F360 L625 MEVIN/N0498F350 B462 KAZIK Y59 AZAMA Y57 TAMAK/N0491F370 Y57 PUTER A590 PUGAL/N0481F390 A590 HAMND/N0494F410 DCT TED J511 GKN J124 ORT DCT 63N140W 63N130W 62N120W 59N110W 5530N10000W DCT MISAX DCT SSM DCT BUF DCT HNK FLOSI4
Aircraft A359/H-SDE2E3GHIJ3J4J5LM1ORWXY/LB1D1

Departure

Time 2026-05-06 13:08
Airport Singapore Changi Airport (WSSS)

Arrival

Time N/A
Airport Newark Liberty International Airport (KEWR)
Time Latitude Longitude Altitude Speed Heading
2026-05-06 12:44 1.36250 103.99312 3 ft 0 kts 292°
2026-05-06 13:00 1.36242 103.99332 31 ft 4 kts 292°
2026-05-06 13:00 1.36233 103.99351 28 ft 3 kts 293°
2026-05-06 13:00 1.36222 103.99373 27 ft 4 kts 309°
2026-05-06 13:00 1.36203 103.99390 29 ft 4 kts 335°
2026-05-06 13:01 1.36181 103.99395 31 ft 3 kts 18°
2026-05-06 13:01 1.36177 103.99393 30 ft 0 kts 23°
2026-05-06 13:04 1.36177 103.99394 30 ft 1 kts 23°
2026-05-06 13:04 1.36213 103.99409 29 ft 10 kts 23°
2026-05-06 13:04 1.36291 103.99463 31 ft 16 kts 46°
2026-05-06 13:04 1.36327 103.99564 31 ft 10 kts 106°
2026-05-06 13:05 1.36304 103.99626 31 ft 9 kts 111°
2026-05-06 13:05 1.36281 103.99685 31 ft 9 kts 112°
2026-05-06 13:05 1.36266 103.99722 31 ft 8 kts 112°
2026-05-06 13:05 1.36243 103.99772 32 ft 7 kts 114°
2026-05-06 13:06 1.36223 103.99817 33 ft 7 kts 114°
2026-05-06 13:06 1.36183 103.99859 33 ft 10 kts 152°
2026-05-06 13:06 1.36102 103.99853 33 ft 14 kts 200°
2026-05-06 13:06 1.36058 103.99835 33 ft 0 kts 193°
2026-05-06 13:07 1.36055 103.99833 33 ft 0 kts 202°
2026-05-06 13:07 1.36047 103.99830 33 ft 8 kts 202°
2026-05-06 13:07 1.35809 103.99732 36 ft 67 kts 203°
2026-05-06 13:07 1.35202 103.99476 37 ft 121 kts 202°
2026-05-06 13:08 1.34276 103.99087 38 ft 167 kts 203°
2026-05-06 13:08 1.33179 103.98623 620 ft 160 kts 202°
2026-05-06 13:08 1.32096 103.98167 929 ft 176 kts 202°
2026-05-06 13:08 1.30928 103.97671 1338 ft 188 kts 202°
2026-05-06 13:09 1.29699 103.97146 1594 ft 197 kts 202°
2026-05-06 13:09 1.28409 103.96592 1798 ft 207 kts 203°
2026-05-06 13:09 1.27056 103.96011 2037 ft 218 kts 203°
2026-05-06 13:09 1.25612 103.95430 2246 ft 229 kts 197°
2026-05-06 13:10 1.24019 103.95197 2503 ft 237 kts 173°
2026-05-06 13:10 1.22503 103.95849 2778 ft 245 kts 138°
2026-05-06 13:10 1.21546 103.97291 2977 ft 259 kts 113°
2026-05-06 13:10 1.20874 103.99000 3256 ft 268 kts 111°
2026-05-06 13:11 1.20236 104.00750 3718 ft 269 kts 111°
2026-05-06 13:11 1.19565 104.02506 4148 ft 272 kts 112°
2026-05-06 13:11 1.18845 104.04271 4604 ft 274 kts 114°
2026-05-06 13:11 1.18082 104.06023 5039 ft 277 kts 115°
2026-05-06 13:12 1.17242 104.07736 5439 ft 279 kts 120°
2026-05-06 13:12 1.16275 104.09439 5833 ft 282 kts 120°
2026-05-06 13:12 1.15346 104.11139 6508 ft 274 kts 119°
2026-05-06 13:12 1.14459 104.12800 7130 ft 268 kts 118°
2026-05-06 13:13 1.13580 104.14499 7299 ft 282 kts 116°
2026-05-06 13:13 1.12733 104.16295 7631 ft 289 kts 115°
2026-05-06 13:13 1.11882 104.18114 8141 ft 287 kts 116°
2026-05-06 13:13 1.11009 104.19895 8760 ft 283 kts 116°
2026-05-06 13:14 1.10205 104.21720 9127 ft 289 kts 106°
2026-05-06 13:14 1.10069 104.23715 9506 ft 293 kts 78°
2026-05-06 13:14 1.10913 104.25522 9876 ft 295 kts 48°
2026-05-06 13:14 1.12522 104.26781 10251 ft 300 kts 32°
2026-05-06 13:15 1.14340 104.27882 10456 ft 311 kts 32°
2026-05-06 13:15 1.16203 104.29051 10685 ft 320 kts 34°
2026-05-06 13:15 1.18100 104.30294 10908 ft 330 kts 34°
2026-05-06 13:15 1.19968 104.31548 11110 ft 339 kts 35°
2026-05-06 13:16 1.21967 104.32906 11338 ft 348 kts 35°
2026-05-06 13:16 1.23990 104.34290 11540 ft 357 kts 35°
2026-05-06 13:16 1.26051 104.35712 11742 ft 365 kts 36°
2026-05-06 13:16 1.28167 104.37173 11938 ft 373 kts 36°
2026-05-06 13:17 1.30183 104.38838 12099 ft 379 kts 47°
2026-05-06 13:17 1.31781 104.40944 12260 ft 385 kts 61°
2026-05-06 13:17 1.32804 104.43442 12421 ft 391 kts 76°
2026-05-06 13:17 1.33177 104.46134 12662 ft 394 kts 88°
2026-05-06 13:18 1.33250 104.48882 12941 ft 396 kts 89°
2026-05-06 13:18 1.33297 104.51641 13238 ft 398 kts 89°
2026-05-06 13:18 1.33351 104.54380 13531 ft 400 kts 89°
2026-05-06 13:18 1.33412 104.57198 13820 ft 402 kts 89°
2026-05-06 13:19 1.33475 104.59967 14073 ft 404 kts 89°
2026-05-06 13:19 1.33539 104.62717 14323 ft 405 kts 89°
2026-05-06 13:19 1.33606 104.65535 14576 ft 407 kts 89°
2026-05-06 13:19 1.33673 104.68368 14823 ft 408 kts 89°
2026-05-06 13:20 1.33741 104.71213 15068 ft 410 kts 89°
2026-05-06 13:20 1.33810 104.74068 15311 ft 412 kts 89°
2026-05-06 13:20 1.33879 104.76937 15555 ft 413 kts 89°
2026-05-06 13:20 1.33947 104.79793 15793 ft 415 kts 89°
2026-05-06 13:21 1.34017 104.82696 16029 ft 416 kts 89°
2026-05-06 13:21 1.34086 104.85588 16276 ft 417 kts 89°
2026-05-06 13:21 1.34156 104.88491 16505 ft 419 kts 89°
2026-05-06 13:21 1.34226 104.91413 16745 ft 420 kts 89°
2026-05-06 13:22 1.34296 104.94340 16970 ft 422 kts 89°
2026-05-06 13:22 1.34367 104.97272 17194 ft 423 kts 89°
2026-05-06 13:22 1.34437 105.00220 17439 ft 425 kts 89°
2026-05-06 13:22 1.34508 105.03171 17658 ft 426 kts 89°
2026-05-06 13:23 1.34579 105.06141 17885 ft 428 kts 89°
2026-05-06 13:23 1.34650 105.09114 18111 ft 429 kts 89°
2026-05-06 13:23 1.34721 105.12103 18302 ft 430 kts 89°
2026-05-06 13:23 1.34793 105.15093 18491 ft 432 kts 89°
2026-05-06 13:24 1.34864 105.18094 18689 ft 433 kts 89°
2026-05-06 13:24 1.34936 105.21074 18867 ft 434 kts 89°
2026-05-06 13:24 1.35007 105.24088 19054 ft 435 kts 89°
2026-05-06 13:24 1.35080 105.27111 19237 ft 436 kts 89°
2026-05-06 13:25 1.35152 105.30148 19416 ft 437 kts 89°
2026-05-06 13:25 1.35224 105.33187 19598 ft 438 kts 89°
2026-05-06 13:25 1.35297 105.36227 19781 ft 439 kts 89°
2026-05-06 13:25 1.35369 105.39291 19971 ft 440 kts 89°
2026-05-06 13:26 1.35442 105.42350 20134 ft 441 kts 89°
2026-05-06 13:26 1.35515 105.45421 20312 ft 442 kts 89°
2026-05-06 13:26 1.35588 105.48496 20492 ft 443 kts 89°
2026-05-06 13:26 1.35662 105.51586 20671 ft 444 kts 88°
2026-05-06 13:27 1.35735 105.54675 20855 ft 446 kts 88°
2026-05-06 13:27 1.35808 105.57777 21041 ft 447 kts 88°
2026-05-06 13:27 1.35882 105.60878 21223 ft 448 kts 88°
2026-05-06 13:27 1.35955 105.63988 21402 ft 449 kts 88°
2026-05-06 13:28 1.36030 105.67110 21599 ft 450 kts 88°
2026-05-06 13:28 1.36250 105.70234 21765 ft 451 kts 82°
2026-05-06 13:28 1.36939 105.73295 21938 ft 452 kts 72°
2026-05-06 13:28 1.38155 105.76190 22121 ft 454 kts 62°
2026-05-06 13:29 1.39877 105.78842 22293 ft 457 kts 52°
2026-05-06 13:29 1.42021 105.81131 22452 ft 459 kts 43°
2026-05-06 13:29 1.42647 105.81665 22506 ft 460 kts 40°
2026-05-06 13:30 1.43950 105.82633 22601 ft 461 kts 35°
2026-05-06 13:30 1.46714 105.84289 22781 ft 463 kts 31°
2026-05-06 13:30 1.49559 105.85815 22977 ft 465 kts 29°
2026-05-06 13:30 1.52444 105.87286 23152 ft 466 kts 28°
2026-05-06 13:31 1.55310 105.88725 23337 ft 467 kts 28°
2026-05-06 13:31 1.58260 105.90211 23501 ft 469 kts 28°
2026-05-06 13:31 1.61169 105.91688 23651 ft 470 kts 28°
2026-05-06 13:31 1.64091 105.93184 23792 ft 471 kts 28°
2026-05-06 13:32 1.66964 105.94664 23939 ft 473 kts 29°
2026-05-06 13:32 1.69889 105.96177 24085 ft 474 kts 29°
2026-05-06 13:32 1.72816 105.97693 24241 ft 475 kts 29°
2026-05-06 13:32 1.75755 105.99217 24397 ft 476 kts 29°
2026-05-06 13:33 1.78697 106.00741 24563 ft 477 kts 29°
2026-05-06 13:33 1.81642 106.02267 24730 ft 478 kts 29°
2026-05-06 13:33 1.84606 106.03803 24905 ft 480 kts 29°
2026-05-06 13:33 1.87585 106.05345 25077 ft 480 kts 29°
2026-05-06 13:34 1.90559 106.06885 25250 ft 482 kts 29°
2026-05-06 13:34 1.93538 106.08432 25419 ft 484 kts 29°
2026-05-06 13:34 1.96528 106.09982 25587 ft 485 kts 28°
2026-05-06 13:34 1.99538 106.11538 25770 ft 487 kts 28°
2026-05-06 13:35 2.02548 106.13092 25948 ft 488 kts 28°
2026-05-06 13:35 2.05564 106.14649 26124 ft 490 kts 28°
2026-05-06 13:35 2.08563 106.16199 26299 ft 491 kts 28°
2026-05-06 13:35 2.11603 106.17771 26509 ft 493 kts 28°
2026-05-06 13:36 2.14651 106.19347 26682 ft 495 kts 28°
2026-05-06 13:36 2.17712 106.20931 26874 ft 496 kts 28°
2026-05-06 13:36 2.20795 106.22526 27050 ft 498 kts 28°
2026-05-06 13:36 2.23878 106.24121 27245 ft 500 kts 28°
2026-05-06 13:37 2.26968 106.25720 27417 ft 502 kts 28°
2026-05-06 13:37 2.30076 106.27329 27610 ft 503 kts 28°
2026-05-06 13:37 2.33198 106.28944 27782 ft 505 kts 28°
2026-05-06 13:37 2.36322 106.30561 27973 ft 507 kts 28°
2026-05-06 13:38 2.39450 106.32180 28158 ft 508 kts 28°
2026-05-06 13:38 2.42601 106.33811 28329 ft 510 kts 28°
2026-05-06 13:38 2.45760 106.35446 28506 ft 511 kts 28°
2026-05-06 13:38 2.48926 106.37084 28671 ft 513 kts 28°
2026-05-06 13:39 2.52053 106.38703 28923 ft 513 kts 28°
2026-05-06 13:39 2.55220 106.40343 29147 ft 512 kts 28°
2026-05-06 13:39 2.58370 106.41978 29372 ft 513 kts 28°
2026-05-06 13:39 2.61594 106.43650 29546 ft 514 kts 28°
2026-05-06 13:40 2.64729 106.45273 29776 ft 513 kts 28°
2026-05-06 13:40 2.67946 106.46937 30013 ft 513 kts 28°
2026-05-06 13:40 2.71074 106.48556 30188 ft 513 kts 28°
2026-05-06 13:40 2.74233 106.50191 30403 ft 512 kts 28°
2026-05-06 13:41 2.77391 106.51832 30599 ft 511 kts 28°
2026-05-06 13:41 2.80552 106.53471 30796 ft 510 kts 28°
2026-05-06 13:41 2.83706 106.55102 30990 ft 510 kts 28°
2026-05-06 13:41 2.86843 106.56730 31162 ft 509 kts 28°
2026-05-06 13:42 2.89992 106.58362 31360 ft 509 kts 28°
2026-05-06 13:42 2.93135 106.59985 31534 ft 508 kts 28°
2026-05-06 13:42 2.96272 106.61605 31727 ft 507 kts 28°
2026-05-06 13:42 2.99409 106.63225 31863 ft 508 kts 28°
2026-05-06 13:43 3.02556 106.64852 31885 ft 511 kts 28°
2026-05-06 13:43 3.08871 106.68121 31885 ft 514 kts 28°
2026-05-06 13:44 3.15258 106.71427 31884 ft 513 kts 28°
2026-05-06 13:44 3.21557 106.74689 31884 ft 513 kts 28°
2026-05-06 13:45 3.27935 106.77992 31883 ft 513 kts 28°
2026-05-06 13:45 3.37387 106.82888 31884 ft 512 kts 28°
2026-05-06 13:46 3.43642 106.86129 31884 ft 512 kts 28°
2026-05-06 13:46 3.49973 106.89409 31884 ft 512 kts 28°
2026-05-06 13:47 3.56238 106.92803 31884 ft 511 kts 34°
2026-05-06 13:47 3.62125 106.96796 31884 ft 511 kts 36°
2026-05-06 13:48 3.67937 107.00898 31885 ft 511 kts 36°
2026-05-06 13:48 3.73732 107.05013 31886 ft 511 kts 36°
2026-05-06 13:49 3.79502 107.09099 31887 ft 511 kts 36°
2026-05-06 13:49 3.85312 107.13205 31886 ft 511 kts 36°
2026-05-06 13:50 3.91135 107.17318 31886 ft 511 kts 36°
2026-05-06 13:50 3.96946 107.21423 31886 ft 511 kts 36°
2026-05-06 13:51 4.02763 107.25535 31886 ft 511 kts 36°
2026-05-06 13:51 4.07600 107.28953 31886 ft 511 kts 36°
2026-05-06 13:52 4.13415 107.33064 31889 ft 511 kts 36°
2026-05-06 13:52 4.19230 107.37176 31889 ft 511 kts 36°
2026-05-06 13:53 4.25043 107.41288 31890 ft 511 kts 36°
2026-05-06 13:53 4.30850 107.45395 31889 ft 511 kts 36°
2026-05-06 13:54 4.36662 107.49507 31888 ft 511 kts 36°
2026-05-06 13:54 4.42460 107.53610 31889 ft 510 kts 36°
2026-05-06 13:55 4.48257 107.57713 31889 ft 510 kts 36°
2026-05-06 13:55 4.54059 107.61820 31889 ft 510 kts 36°
2026-05-06 13:56 4.59864 107.65931 31892 ft 510 kts 36°
2026-05-06 13:56 4.65671 107.70044 31892 ft 510 kts 36°
2026-05-06 13:57 4.71476 107.74156 31892 ft 510 kts 36°
2026-05-06 13:57 4.77266 107.78258 31892 ft 510 kts 36°
2026-05-06 13:58 4.83033 107.82345 31892 ft 510 kts 36°
2026-05-06 13:58 4.88821 107.86447 31892 ft 510 kts 36°
2026-05-06 13:59 4.94611 107.90552 31892 ft 510 kts 36°
2026-05-06 13:59 5.00400 107.94660 31892 ft 510 kts 36°
2026-05-06 14:00 5.06212 107.98749 31895 ft 510 kts 36°
2026-05-06 14:00 5.12027 108.02820 31895 ft 510 kts 36°
2026-05-06 14:01 5.17849 108.06904 31892 ft 511 kts 36°
2026-05-06 14:01 5.23669 108.10992 31892 ft 511 kts 36°
2026-05-06 14:02 5.29459 108.15063 31892 ft 511 kts 36°
2026-05-06 14:02 5.35275 108.19153 31892 ft 511 kts 36°
2026-05-06 14:03 5.41097 108.23248 31892 ft 511 kts 36°
2026-05-06 14:03 5.46915 108.27341 31892 ft 511 kts 36°
2026-05-06 14:04 5.52743 108.31441 31895 ft 512 kts 36°
2026-05-06 14:04 5.58577 108.35547 31895 ft 512 kts 36°
2026-05-06 14:05 5.64411 108.39654 31892 ft 512 kts 36°
2026-05-06 14:05 5.70238 108.43757 31891 ft 512 kts 36°
2026-05-06 14:06 5.76068 108.47864 31892 ft 511 kts 36°
2026-05-06 14:06 5.81889 108.51965 31892 ft 512 kts 36°
2026-05-06 14:07 5.87690 108.56053 31892 ft 513 kts 36°
2026-05-06 14:07 5.93531 108.60170 31892 ft 513 kts 36°
2026-05-06 14:08 5.99366 108.64284 31895 ft 513 kts 36°
2026-05-06 14:08 6.05203 108.68401 31895 ft 513 kts 36°
2026-05-06 14:09 6.11046 108.72523 31892 ft 513 kts 36°
2026-05-06 14:09 6.16880 108.76640 31892 ft 513 kts 36°
2026-05-06 14:10 6.22725 108.80765 31892 ft 513 kts 36°
2026-05-06 14:10 6.28570 108.84892 31892 ft 513 kts 36°
2026-05-06 14:11 6.34415 108.89020 31892 ft 513 kts 36°
2026-05-06 14:11 6.40260 108.93149 31892 ft 513 kts 36°
2026-05-06 14:12 6.46106 108.97280 31895 ft 513 kts 36°
2026-05-06 14:12 6.51951 109.01411 31895 ft 513 kts 36°
2026-05-06 14:13 6.57751 109.05512 31892 ft 513 kts 36°
2026-05-06 14:13 6.63595 109.09645 31892 ft 513 kts 36°
2026-05-06 14:14 6.69437 109.13779 31892 ft 513 kts 36°
2026-05-06 14:14 6.75287 109.17919 31892 ft 514 kts 36°
2026-05-06 14:15 6.81127 109.22053 31892 ft 514 kts 36°
2026-05-06 14:15 6.86976 109.26194 31892 ft 514 kts 37°
2026-05-06 14:16 6.92817 109.30332 31895 ft 514 kts 37°
2026-05-06 14:16 6.98665 109.34476 31895 ft 514 kts 37°
2026-05-06 14:17 7.04510 109.38618 31895 ft 514 kts 37°
2026-05-06 14:17 7.10364 109.42769 31895 ft 514 kts 37°
2026-05-06 14:18 7.16174 109.46889 31891 ft 514 kts 36°
2026-05-06 14:18 7.22020 109.51037 31892 ft 513 kts 36°
2026-05-06 14:19 7.27866 109.55185 31892 ft 513 kts 36°
2026-05-06 14:19 7.33699 109.59325 31892 ft 513 kts 36°
2026-05-06 14:20 7.39548 109.63479 31895 ft 513 kts 36°
2026-05-06 14:20 7.45385 109.67626 31895 ft 513 kts 36°
2026-05-06 14:21 7.51217 109.71770 31895 ft 513 kts 36°
2026-05-06 14:21 7.57060 109.75923 31895 ft 513 kts 36°
2026-05-06 14:22 7.62863 109.80050 31895 ft 513 kts 36°
2026-05-06 14:22 7.68701 109.84202 31895 ft 513 kts 36°